Location: Cheching
(60.0667°N, 164.2167°W)
Time: 19:59:54
(UTC+00:00)

DX 1 - Pass Details

Date: 02 February 2021
Orbit: 618 x 631 km, 98.5° (Epoch: 26 February)

Event Time Altitude Azimuth Distance (km) Brightness Sun altitude
Exits shadow 06:09:30 63° 71° (ENE) 697 ? -21.8°
Maximum altitude 06:09:53 67° 105° (ESE) 676 ? -21.8°
Drops below altitude 10° 06:14:11 10° 189° (S) 1,985 ? -22.4°
Sets 06:16:23 0° 192° (SSW) 2,887 ? -22.6°
